Other Surface Observations
Issued by NWS

Current Version | Previous Version | Text Only | Print | Product List | Glossary On
Versions: 1 2 3 4 5 6 7 8 9 10 11 12 13 14 15 16 17 18 19 20 21 22 23 24 25 26 27 28 29 30 31 32 33 34 35 36 37 38 39 40 41 42 43 44 45 46 47 48 49 50
000
SXUS52 KTAE 231116
OSOTAE
OSOTAE
North Florida/South Alabama/Southwest Georgia Weather Roundup
National Weather Service Tallahassee Florida
600 AM EST SAT FEB 23 2019

Note: "fair" indicates few or no clouds below 12,000 feet with no
significant weather and/or obstructions to visibility.

!FLZ017-115-028-034-025-231200
...North Florida...

CITY           SKY/WX    TMP DP  RH WIND       PRES   REMARKS
TALL INTL ARPT FOG       68  68 100 S3        30.10S VSB 3/4
FSU LOVE BLDG    N/A     68  68 100 S5          N/A
APALACHICOLA   FOG       67  66  97 SE7       30.09S VSB 3/4
PERRY          FOG       64  63  97 CALM      30.13R VSB 1/2
CROSS CITY     FAIR      63  62  96 N3        30.12R
JACKSONVILLE   FOG       65  64  97 NE8       30.14F VSB 1
$$

!FLZ112-006-005-002-011-231200
...Florida Panhandle...

CITY           SKY/WX    TMP DP  RH WIND       PRES   REMARKS
MARIANNA       CLOUDY    68  68 100 SE3       30.08S
BONIFAY        NOT AVBL
PANAMA CITY NW CLOUDY    69  68  96 E5        30.06S FOG
TYNDALL AFB    CLOUDY    70  68  94 SE7       30.08S FOG
TYND DRONE APT NOT AVBL
DE FUNIAK SPR  CLOUDY    67  67  99 SE8       30.07S FOG
EGLIN AFB      FOG       68  68 100 SE8       30.04F VSB 1/2
DESTIN         FOG       67  66  97 SE12      30.05S VSB 3/4
HURLBURT       FOG       67  67  98 E7        30.03S VSB 1/4
CRESTVIEW      CLOUDY    69  68  96 SE3       30.07S FOG
PENSACOLA      FOG       69  67  93 SE9       30.03F VSB 1/2
$$

!ALZ063-066-231200
...South Alabama...

CITY           SKY/WX    TMP DP  RH WIND       PRES   REMARKS
DOTHAN         CLOUDY    68  65  90 SE3       30.12S
OZARK CAIRNS   CLOUDY    68  66  95 SE5       30.08S
FT RUCKER HELI CLOUDY    68  66  94 SE5       30.08S
RUCKER HELI 3  CLOUDY    68  67  97 S6        30.07
RUCKER HELI 2  CLOUDY    66  66 100 SE3       30.07S
FLORALA APT    CLOUDY    69  66  90 S8        30.08S
ANDALUSIA      CLOUDY    72  68  87 SE5       30.05S
TROY           CLOUDY    69  67  93 SE7       30.07S
EUFALA         CLOUDY    64  61  90 E6        30.09S
MOBILE         CLOUDY    71  71 100 S13       30.02S
$$

!GAZ120>161-231200
...Southwest and South Central Georgia...

CITY           SKY/WX    TMP DP  RH WIND       PRES   REMARKS
THOMASVILLE    CLOUDY    66  66 100 E3        30.13S
BAINBRIDGE       N/A     70  66  88 MISG      30.10S
MOODY AFB      CLOUDY    64  64 100 E7        30.13R
VALDOSTA       MOCLDY    66  65  96 SE5       30.13R
MOULTRIE       FAIR      66  64  94 CALM      30.13S
BLAKELY        CLOUDY    64  63  94 CALM      30.11R FOG
ALBANY         MOCLDY    65  62  90 E5        30.13S
TIFTON         CLOUDY   N/A N/A N/A E3        30.13
FITZGERALD     CLOUDY    64  63  98 SE6       30.16S
CORDELE        CLOUDY    60  58  95 E5        30.15S FOG
AMERICUS       FOG       61  57  88 E5        30.16S VSB 1/2
HOMERVILLE     NOT AVBL
$$

!GMZ750-755-770-775-231200
...Coastal and Buoy Obs...

STATION/POSITION TIME  TEMP    WIND        PRES    VSBY  WAVE
                       AIR SEA DIR/SP/G                  HT/PER
                 (UTC) (F)     (DEG/KT/KT) (MB)    (MI)  (FT/S)
KEATON BEACH     1100   66      80/  5/  5 1019.9R
CEDAR KEY        1100   71     130/  5/  6 1020.1R
C TOWER          1100   67     160/ 14/ 14 1018.9S
APALACHICOLA BUO NOT AVBL
PANAMA CITY BUOY NOT AVBL
MOBILE BUOY      1050          150/ 12/ 16 1016.4F         3/ 6
ORANGE BCH AL BU 1050   67     150/ 10/ 12 1016.9          3/ 6
$$




USA.gov is the U.S. government's official web portal to all federal, state and local government web resources and services.